STARLINK-37260, 68510

Orbit data source: Space-Track

STARLINK-37260, 68510 is a payload satellite owned by SpaceX/Seattle (US) in LEO that was launched on Mon, 30 Mar 2026 UTC via an FALCON 9 launch vehicle from the Air Force Eastern Test Range (AFETR). Payload-class satellites include a variety of spacecraft equipped with specific instruments for various scientific and technological missions. These include communications satellites like Starlink; space stations such as the ISS; scientific satellites like the Hubble; Earth observation satellites from companies like Planet Labs, Umbra, and HawkEye 360; GPS; miniature CubeSats for education and research; and military/defense satellites.

Loading next visibility...
Identifier
68510, 2026-068C
Orbit
LEO
Country
Flag of USUS
Related business
Manufacturer
SpaceX/Seattle
Mission
Operational spacecraft
Bus & Motor
STARLINK V2MO, Unknown motor
Mass
575 kg wet, ~530 kg dry
Launch date (UTC)
2026-03-30 (3 months ago)
Launch vehicle
FALCON 9
Launch site
Air Force Eastern Test Range (AFETR)
Object type
Payload
Rocket body
Debris
Shape & HBR
Unknown shape, 2.4 m
Radar Cross Section
Large (>1 m²)

Expand to show TLE details & history
Last TLE update: 1 day ago

TLE from 1 day ago
0 STARLINK-37260
1 68510U 26068C   26170.87596091  .00027844  00000-0  83194-3 0  9996
2 68510  53.1599  10.7768 0001137  89.2959 270.8174 15.34408789 12648
Epoch: 2026-06-19T21:01Z
TLE epoch observation values (Epoch: 2026-06-19T21:01:23.022Z)
Latitude
-0.00002°
Longitude
147.33221°
Altitude
463.567 km
Speed
7.636 km/s
True Right ascension
00h 43m 06s
True Declination
0° 00' 00"
Sunlit
Object was in daylight at epoch
Visualization orbit readout
Latitude
Unknown
Longitude
Unknown
Altitude
Unknown
Speed
Unknown
Apparent Right ascension
Unknown
Apparent Declination
Unknown
Sunlit
N/A
Visualization observer readout
Local Sidereal Time
08:41:36
Azimuth
Unknown
Elevation
Unknown
Doppler factor
Unknown
Orbital elements
Apogee altitude
463.712 km
Perigee altitude
462.156 km
Semi-major axis
6,841.071 km
Eccentricity
0.00011
Inclination
53.1599°
RAAN
10.7768°
Arg. of periapsis
89.2959°
True anomaly
270.80437°
Mean anomaly
270.8174°
Eccentric anomaly
270.81089°
Mean motion
3.83581 °/min
Orbital period
93.85 mins
BSTAR
0.00083194
Loading maneuver chart data...
Computing Atmospheric mass density...
Loading historical data...
Loading historical data...
Loading historical data...
Loading historical data...
Loading historical data...
Loading historical data...
Loading historical data...

Documentation

Showing up to 5 results
|